Find Starlink 3132

NORAD ID: 49457 Int'l Des: 2021-104 Owner: SPXS Country: US Constellation: starlink operational
LEOCIRCULAR

リアルタイム位置

3D地球を読み込み中...

Starlink 3132について

説明を読み込み中...

次回通過

Passes for default location (London). Set your location on the main map for personalized predictions.

高度履歴

Loading altitude history...

軌道要素

1 49457U 21104BB 26105.55432078 .00000391 00000-0 42672-4 0 9993
2 49457 53.2162 53.6367 0001356 94.0038 266.1109 15.08839968244348
Epoch: Apr 15, 2026 • Age: 11 hours

現在のステータス

高度 540.1 km
速度 7.60 km/s
衛星直下点 23.24°N, 142.45°W
打ち上げ日 Nov 13, 2021
運用期間 4.4 years
タイプ internet

技術仕様

分類 Payload
質量 290.00 kg
乾燥質量 270.00 kg
総質量 290.00 kg
長さ 0.20 m
直径 2.80 m
スパン 9.00 m
形状 Box + pan
製造者 SPXS
バスタイプ Starlink
フェーズステータス In Orbit
所有者/国 SPXS/US

Most Searched